CAPE
0 6 86 684 863 705 748 500 314 75 32 29 16 4 0 0 0 0 0 1 0 0 0 0 0 0 0 0 0 0 0 0
289 280 251 504 1095 907 612 444 241 59 262 77 2 0 0 0 0 0 0 0 0 0 0 0 0 0 0 0 0 0 0 0
493 585 641 742 1065 814 617 479 242 290 498 18 1 0 0 0 0 0 0 0 0 0 0 0 0 0 0 0 0 0 0 0
585 751 892 1353 1092 874 585 568 353 565 236 11 0 0 0 0 0 0 0 0 0 0 0 0 0 0 0 0 0 0 0 0
789 957 997 972 748 642 603 636 650 280 3 0 0 0 0 0 0 1 0 0 0 0 0 0 0 0 0 0 0 0 0 0
961 1040 946 708 761 810 843 665 48 0 0 0 0 47 19 9 9 0 5 0 0 0 0 0 0 0 0 3 4 1 5 9
822 1001 961 903 1119 787 172 0 0 0 0 12 27 49 2 0 0 0 0 0 0 0 2 0 0 0 0 0 0 0 5 15
531 593 435 274 96 53 3 0 0 0 0 5 10 0 0 0 0 0 2 0 0 0 0 0 0 0 0 0 0 0 16 39
102 68 5 5 11 0 0 0 0 0 14 6 0 0 0 1 2 10 6 0 0 0 0 0 0 0 0 0 0 0 15 49
0 0 0 0 0 0 0 0 1 3 5 1 0 0 0 6 12 7 0 0 0 0 0 0 0 0 0 0 1 11 33 7
2 0 0 1 0 0 0 12 6 2 0 0 0 1 3 12 5 0 0 0 0 0 0 0 0 0 0 0 4 11 0 8
17 0 1 2 8 12 8 8 6 7 0 4 11 7 8 7 0 0 0 0 0 0 0 0 0 0 0 2 5 1 0 0
14 1 6 7 19 5 6 7 5 6 4 19 17 12 9 6 0 0 0 0 0 0 0 0 0 0 2 2 0 0 4 6
32 17 11 13 7 2 4 0 8 10 52 25 7 5 1 1 0 0 0 0 0 0 0 0 0 0 0 0 0 6 3 3
47 29 29 11 7 1 0 0 2 45 23 17 18 0 1 3 0 0 0 0 0 0 0 0 3 0 0 2 7 0 1 1
20 90 50 28 0 0 0 0 20 34 9 22 30 1 6 0 0 0 0 0 0 0 0 4 1 0 0 0 2 1 0 0
4 37 24 0 3 0 0 1 25 23 50 44 17 1 0 0 0 0 0 0 0 0 1 0 0 0 0 1 0 0 0 0
3 0 0 4 4 0 0 0 19 18 41 19 0 0 0 0 0 0 0 0 0 1 1 0 0 0 0 0 0 0 0 0
0 4 10 2 1 0 0 4 7 15 14 16 0 0 0 0 0 0 0 0 0 0 0 0 0 0 0 0 0 0 0 0
CIN
0 -74 -48 -17 -27 -52 -9 -52 -78 -25 -46 -13 -26 -77 0 0 0 0 0 -23 0 0 0 0 0 0 0 0 0 0 0 0
-59 -67 -55 -22 -41 -41 -87 -81 -73 -9 -31 -8 -29 0 0 0 0 0 0 0 0 0 0 0 0 0 0 0 0 0 0 0
-79 -50 -45 -18 -33 -27 -79 -42 -56 -33 -6 -63 -41 0 0 0 0 0 0 0 0 0 0 0 0 0 0 0 0 0 0 0
-45 -24 -30 -24 -23 -26 -52 -14 -34 -14 -18 -25 0 0 0 0 0 0 0 0 0 0 0 0 0 0 0 0 0 0 0 0
-12 -4 -13 -46 -46 -29 -24 -9 -6 -19 -7 0 0 0 0 0 0 -1 0 0 0 0 0 0 0 0 0 0 0 0 0 0
-7 -19 -55 -58 -25 -20 -10 -8 -55 0 -1 0 0 -21 0 -25 0 -1 -2 0 0 0 0 -2 -1 0 0 -19 -11 -16 -14 -8
-16 -23 -33 -23 -13 -20 -39 0 -3 0 0 -13 -25 -21 -12 -1 0 0 0 -1 0 0 -27 0 0 0 0 0 0 0 -8 -11
-20 -11 -19 -35 -78 -101 -56 -2 -4 0 0 -34 -25 -2 0 0 0 0 -3 -1 0 0 0 0 0 0 0 0 0 0 -8 -6
-102 -119 -17 -54 -175 -23 0 0 0 0 -13 -13 0 0 0 -6 -2 -2 -2 0 0 0 0 0 0 0 0 0 0 0 -5 -10
0 0 0 0 0 0 0 -2 -7 -25 0 0 0 0 -1 0 -1 -5 0 0 0 0 0 0 0 0 0 0 -5 -5 -10 -20
-119 0 0 -7 0 0 0 -27 0 0 0 0 -5 -3 0 -2 -1 0 0 0 0 0 0 0 0 0 0 0 -5 -11 0 -4
-173 0 -9 -10 -26 -24 -20 -37 -2 -4 0 -10 -6 -5 -1 0 0 0 0 0 0 0 0 0 0 0 0 -4 -14 -3 -1 0
-142 -3 -20 -5 -26 -1 -2 -19 -5 -5 -8 -6 -2 -3 -1 -1 0 0 0 0 0 0 0 0 0 0 -5 -5 0 0 -18 -7
-66 -60 -23 -4 -10 0 0 0 -4 -5 -4 -2 -11 -3 -1 0 0 0 0 0 0 0 0 0 0 0 0 0 0 -4 -4 0
-13 -11 -22 -1 -1 0 0 0 -4 -4 -2 -5 0 0 0 0 0 0 0 0 0 0 0 0 -7 0 0 -2 -2 -1 -6 -1
-4 -20 -2 -1 0 0 0 0 -14 -2 -9 -3 -2 0 0 0 0 0 0 0 0 0 0 -7 -2 0 0 -1 -1 -1 0 0
-8 -18 -5 0 0 0 0 -6 -5 -3 0 0 -9 0 0 0 0 0 0 0 0 0 -1 0 0 0 -3 -1 -1 0 0 0
-11 0 -4 0 0 0 0 0 0 0 0 -1 0 0 0 0 0 0 0 0 0 -2 -1 0 0 0 0 0 0 0 0 0
0 -8 -10 0 0 0 0 0 0 0 -1 -3 0 0 0 0 0 0 0 0 -5 0 0 0 -1 0 0 0 0 0 0 0
Wind_Speed
nan nan nan 22 25 29 28 28 32 nan nan nan nan nan nan nan nan nan nan nan nan nan nan nan nan nan nan nan nan nan nan nan
15 15 17 23 27 29 33 33 33 nan 31 nan nan nan nan nan nan nan nan nan nan nan nan nan nan nan nan nan nan nan nan nan
19 16 17 23 27 28 33 35 35 30 30 nan nan nan nan nan nan nan nan nan nan nan nan nan nan nan nan nan nan nan nan nan
21 22 21 29 32 32 32 33 32 27 28 nan nan nan nan nan nan nan nan nan nan nan nan nan nan nan nan nan nan nan nan nan
28 29 29 32 32 32 32 31 29 26 nan nan nan nan nan nan nan nan nan nan nan nan nan nan nan nan nan nan nan nan nan nan
35 41 37 35 31 29 24 27 nan nan nan nan nan nan nan nan nan nan nan nan nan nan nan nan nan nan nan nan nan nan nan nan
38 43 34 27 26 22 25 nan nan nan nan nan nan nan nan nan nan nan nan nan nan nan nan nan nan nan nan nan nan nan nan nan
28 27 24 24 nan nan nan nan nan nan nan nan nan nan nan nan nan nan nan nan nan nan nan nan nan nan nan nan nan nan nan nan
20 nan nan nan nan nan nan nan nan nan nan nan nan nan nan nan nan nan nan nan nan nan nan nan nan nan nan nan nan nan nan nan
nan nan nan nan nan nan nan nan nan nan nan nan nan nan nan nan nan nan nan nan nan nan nan nan nan nan nan nan nan nan nan nan
nan nan nan nan nan nan nan nan nan nan nan nan nan nan nan nan nan nan nan nan nan nan nan nan nan nan nan nan nan nan nan nan
nan nan nan nan nan nan nan nan nan nan nan nan nan nan nan nan nan nan nan nan nan nan nan nan nan nan nan nan nan nan nan nan
nan nan nan nan nan nan nan nan nan nan nan nan nan nan nan nan nan nan nan nan nan nan nan nan nan nan nan nan nan nan nan nan
nan nan nan nan nan nan nan nan nan nan nan nan nan nan nan nan nan nan nan nan nan nan nan nan nan nan nan nan nan nan nan nan
nan nan nan nan nan nan nan nan nan nan nan nan nan nan nan nan nan nan nan nan nan nan nan nan nan nan nan nan nan nan nan nan
nan nan nan nan nan nan nan nan nan nan nan nan nan nan nan nan nan nan nan nan nan nan nan nan nan nan nan nan nan nan nan nan
nan nan nan nan nan nan nan nan nan nan nan nan nan nan nan nan nan nan nan nan nan nan nan nan nan nan nan nan nan nan nan nan
nan nan nan nan nan nan nan nan nan nan nan nan nan nan nan nan nan nan nan nan nan nan nan nan nan nan nan nan nan nan nan nan
nan nan nan nan nan nan nan nan nan nan nan nan nan nan nan nan nan nan nan nan nan nan nan nan nan nan nan nan nan nan nan nan
Wind_Direction
nan nan nan 323 318 309 310 298 299 nan nan nan nan nan nan nan nan nan nan nan nan nan nan nan nan nan nan nan nan nan nan nan
307 318 314 304 300 301 296 295 299 nan 308 nan nan nan nan nan nan nan nan nan nan nan nan nan nan nan nan nan nan nan nan nan
305 306 295 290 298 296 302 308 312 321 317 nan nan nan nan nan nan nan nan nan nan nan nan nan nan nan nan nan nan nan nan nan
312 308 300 289 296 302 308 316 321 329 315 nan nan nan nan nan nan nan nan nan nan nan nan nan nan nan nan nan nan nan nan nan
313 305 294 293 300 307 319 326 328 320 nan nan nan nan nan nan nan nan nan nan nan nan nan nan nan nan nan nan nan nan nan nan
308 297 302 304 310 318 329 324 nan nan nan nan nan nan nan nan nan nan nan nan nan nan nan nan nan nan nan nan nan nan nan nan
297 303 310 316 315 315 304 nan nan nan nan nan nan nan nan nan nan nan nan nan nan nan nan nan nan nan nan nan nan nan nan nan
300 306 310 307 nan nan nan nan nan nan nan nan nan nan nan nan nan nan nan nan nan nan nan nan nan nan nan nan nan nan nan nan
321 nan nan nan nan nan nan nan nan nan nan nan nan nan nan nan nan nan nan nan nan nan nan nan nan nan nan nan nan nan nan nan
nan nan nan nan nan nan nan nan nan nan nan nan nan nan nan nan nan nan nan nan nan nan nan nan nan nan nan nan nan nan nan nan
nan nan nan nan nan nan nan nan nan nan nan nan nan nan nan nan nan nan nan nan nan nan nan nan nan nan nan nan nan nan nan nan
nan nan nan nan nan nan nan nan nan nan nan nan nan nan nan nan nan nan nan nan nan nan nan nan nan nan nan nan nan nan nan nan
nan nan nan nan nan nan nan nan nan nan nan nan nan nan nan nan nan nan nan nan nan nan nan nan nan nan nan nan nan nan nan nan
nan nan nan nan nan nan nan nan nan nan nan nan nan nan nan nan nan nan nan nan nan nan nan nan nan nan nan nan nan nan nan nan
nan nan nan nan nan nan nan nan nan nan nan nan nan nan nan nan nan nan nan nan nan nan nan nan nan nan nan nan nan nan nan nan
nan nan nan nan nan nan nan nan nan nan nan nan nan nan nan nan nan nan nan nan nan nan nan nan nan nan nan nan nan nan nan nan
nan nan nan nan nan nan nan nan nan nan nan nan nan nan nan nan nan nan nan nan nan nan nan nan nan nan nan nan nan nan nan nan
nan nan nan nan nan nan nan nan nan nan nan nan nan nan nan nan nan nan nan nan nan nan nan nan nan nan nan nan nan nan nan nan
nan nan nan nan nan nan nan nan nan nan nan nan nan nan nan nan nan nan nan nan nan nan nan nan nan nan nan nan nan nan nan nan